Weather History for Imperial, NE

Change the Weather History Date:

Thursday, May 17, 2012

  Actual Average Record
Temperature  
Mean Temperature 73 °F 60 °F  
Max Temperature 90 °F 74 °F 100 °F (1934)
Min Temperature 56 °F 47 °F 22 °F (1909)
Degree Days  
Heating Degree Days 0 6  
Month to date heating degree days 73 144  
Cooling Degree Days 8 1  
Month to date cooling degree days 27 13  
Year to date cooling degree days 36 14  
Growing Degree Days 23 (Base 50)    
Moisture  
Dew Point 39 °F    
Average Humidity 32    
Maximum Humidity 48    
Minimum Humidity 16    
Precipitation  
Precipitation 0.00 in 0.09 in 1.65 in (1954)
Sea Level Pressure  
Sea Level Pressure 29.68 in    
Wind  
Wind Speed 10 mph (South)    
Max Wind Speed 31 mph    
Max Gust Speed 38 mph    
Visibility 10 miles    
Events      
T = Trace of Precipitation, MM = Missing Value Source: NWS Daily Summary

Daily Weather History Graph

Daily Weather History Graph

Search for Another Location

Airport:

Trip Planner

Search our weather history database for the weather conditions in past years. The results will help you decide how hot, cold, wet, or windy it might be!

Date:

Astronomy

May. 17, 2012 Rise Set
Actual Time 5:27 AM MDT 7:58 PM MDT
Civil Twilight 4:56 AM MDT 8:29 PM MDT
Nautical Twilight 4:17 AM MDT 9:08 PM MDT
Astronomical Twilight 3:34 AM MDT 9:52 PM MDT
Moon 3:27 AM MDT (5/17) 5:12 PM MDT (5/17)
Length of Visible Light 15h 33m
Length of Day
14h 31m
Waning Crescent, 9% of the Moon is Illuminated
May 17
Waning Crescent
May 20
New
May 28
First Quarter
Jun 4
Full
Jun 11
Last Quarter

Hourly Weather History & Observations

Time (MDT) Temp. Dew Point Humidity Pressure Visibility Wind Dir Wind Speed Gust Speed Precip Events Conditions
12:53 AM 59.0 °F 36.0 °F 42% 29.79 in 10.0 mi SSE 5.8 mph - N/A   Clear
1:53 AM 61.0 °F 36.0 °F 39% 29.75 in 10.0 mi South 10.4 mph - N/A   Clear
2:53 AM 66.0 °F 34.0 °F 30% 29.73 in 10.0 mi SSW 18.4 mph - N/A   Clear
3:53 AM 63.0 °F 35.1 °F 35% 29.73 in 10.0 mi SSW 10.4 mph - N/A   Clear
4:53 AM 57.9 °F 36.0 °F 44% 29.74 in 10.0 mi South 6.9 mph - N/A   Clear
5:53 AM 57.9 °F 37.0 °F 46% 29.74 in 10.0 mi South 6.9 mph - N/A   Clear
6:53 AM 61.0 °F 39.0 °F 44% 29.73 in 10.0 mi South 9.2 mph - N/A   Clear
7:53 AM 64.9 °F 39.0 °F 39% 29.72 in 10.0 mi SSW 11.5 mph 19.6 mph N/A   Clear
8:53 AM 69.1 °F 41.0 °F 36% 29.72 in 10.0 mi SSW 11.5 mph - N/A   Clear
9:53 AM 73.9 °F 41.0 °F 30% 29.70 in 10.0 mi WSW 4.6 mph - N/A   Clear
10:53 AM 78.1 °F 43.0 °F 29% 29.69 in 10.0 mi Variable 4.6 mph - N/A   Clear
11:53 AM 81.0 °F 42.1 °F 25% 29.68 in 10.0 mi Calm Calm - N/A   Clear
12:53 PM 86.0 °F 41.0 °F 20% 29.65 in 10.0 mi Calm Calm - N/A   Clear
1:53 PM 84.9 °F 41.0 °F 21% 29.65 in 10.0 mi Variable 5.8 mph - N/A   Clear
2:53 PM 89.1 °F 39.0 °F 17% 29.60 in 10.0 mi SW 9.2 mph - N/A   Clear
3:53 PM 89.1 °F 37.0 °F 16% 29.59 in 10.0 mi South 8.1 mph - N/A   Clear
4:53 PM 82.9 °F 35.1 °F 18% 29.60 in 7.0 mi SSW 28.8 mph 35.7 mph N/A   Clear
5:53 PM 82.9 °F 36.0 °F 19% 29.61 in 10.0 mi SSE 18.4 mph 21.9 mph N/A   Clear
6:04 PM 80.6 °F 37.4 °F 21% 29.70 in 10.0 mi SSE 17.3 mph 28.8 mph N/A   Clear
6:53 PM 78.1 °F 37.9 °F 24% 29.65 in 10.0 mi West 9.2 mph - N/A   Partly Cloudy
7:53 PM 72.0 °F 43.0 °F 35% 29.66 in 10.0 mi South 10.4 mph - N/A   Partly Cloudy
8:53 PM 70.0 °F 42.1 °F 36% 29.63 in 10.0 mi South 12.7 mph - N/A   Clear
9:53 PM 66.0 °F 41.0 °F 40% 29.66 in 10.0 mi South 10.4 mph 18.4 mph N/A   Clear
10:53 PM 64.9 °F 41.0 °F 42% 29.66 in 10.0 mi South 11.5 mph - N/A   Clear
11:53 PM 63.0 °F 43.0 °F 48% 29.65 in 10.0 mi South 6.9 mph - N/A   Clear